• In United Kingdom
  • List of Countries
  • For 7 days
  • Water Temperature
  • Satellite Maps
  • Weather Map
  • Weather Widgets
  • user-avatar
    Login

    Hourly Weather Limón

    Today, 19 September, Wednesday

    Time Temperature Precipitation Wind Pressure Humidity
    00:00 +27°C° 0 mm 1 mps 757 mmHg 86%
    01:00 +27°C° 0 mm 1 mps 757 mmHg 85%
    02:00 +27°C° 0 mm 1 mps 756 mmHg 83%
    03:00 +27°C° 0 mm 2 mps 756 mmHg 81%
    04:00 +27°C° 0.4 mm 2 mps 756 mmHg 78%
    05:00 +27°C° 0.4 mm 2 mps 756 mmHg 75%
    06:00 +27°C° 0.4 mm 2 mps 757 mmHg 72%
    07:00 +30°C° 0.3 mm 2 mps 757 mmHg 65%
    08:00 +32°C° 0.3 mm 2 mps 757 mmHg 58%
    09:00 +36°C° 0.3 mm 2 mps 758 mmHg 51%
    10:00 +36°C° 0.1 mm 2 mps 757 mmHg 51%
    11:00 +36°C° 0.1 mm 3 mps 757 mmHg 52%
    12:00 +37°C° 0.1 mm 3 mps 757 mmHg 52%
    13:00 +36°C° 0.1 mm 4 mps 756 mmHg 54%
    14:00 +36°C° 0.1 mm 4 mps 755 mmHg 57%
    15:00 +35°C° 0.1 mm 4 mps 755 mmHg 59%
    16:00 +34°C° 0.2 mm 3 mps 755 mmHg 68%
    17:00 +31°C° 0.2 mm 3 mps 755 mmHg 77%
    18:00 +29°C° 0.2 mm 2 mps 755 mmHg 87%
    19:00 +29°C° 1.3 mm 2 mps 756 mmHg 87%
    20:00 +29°C° 1.3 mm 2 mps 756 mmHg 87%
    21:00 +29°C° 1.3 mm 1 mps 757 mmHg 88%
    22:00 +29°C° 0.4 mm 1 mps 757 mmHg 86%
    23:00 +29°C° 0.4 mm 1 mps 756 mmHg 84%

    Tomorrow, 20 September, Thursday

    Time Temperature Precipitation Wind Pressure Humidity
    00:00 +29°C° 0.4 mm 2 mps 756 mmHg 83%
    01:00 +28°C° 0.1 mm 2 mps 756 mmHg 82%
    02:00 +28°C° 0.1 mm 2 mps 756 mmHg 80%
    03:00 +28°C° 0.1 mm 2 mps 755 mmHg 79%
    04:00 +28°C° 0.4 mm 2 mps 755 mmHg 77%
    05:00 +28°C° 0.4 mm 3 mps 756 mmHg 75%
    06:00 +28°C° 0.4 mm 3 mps 756 mmHg 74%
    07:00 +30°C° 0.3 mm 3 mps 756 mmHg 67%
    08:00 +32°C° 0.3 mm 2 mps 757 mmHg 60%
    09:00 +35°C° 0.3 mm 2 mps 758 mmHg 53%
    10:00 +36°C° 0.5 mm 2 mps 757 mmHg 52%
    11:00 +36°C° 0.5 mm 3 mps 757 mmHg 52%
    12:00 +37°C° 0.5 mm 3 mps 756 mmHg 52%
    13:00 +36°C° 1.3 mm 3 mps 756 mmHg 56%
    14:00 +35°C° 1.3 mm 3 mps 755 mmHg 60%
    15:00 +34°C° 1.3 mm 3 mps 755 mmHg 65%
    16:00 +32°C° 0.5 mm 2 mps 755 mmHg 71%
    17:00 +30°C° 0.5 mm 1 mps 756 mmHg 78%
    18:00 +29°C° 0.5 mm 1 mps 756 mmHg 85%
    19:00 +29°C° 0.2 mm 1 mps 757 mmHg 84%
    20:00 +29°C° 0.2 mm 1 mps 757 mmHg 84%
    21:00 +29°C° 0.2 mm 1 mps 758 mmHg 83%
    22:00 +29°C° 0.3 mm 1 mps 757 mmHg 82%
    23:00 +28°C° 0.3 mm 1 mps 757 mmHg 81%

    Day after tomorrow, 21 September, Friday

    Time Temperature Precipitation Wind Pressure Humidity
    00:00 +28°C° 0.3 mm 1 mps 757 mmHg 79%
    01:00 +28°C° 0.1 mm 1 mps 757 mmHg 78%
    02:00 +28°C° 0.1 mm 1 mps 756 mmHg 76%
    03:00 +28°C° 0.1 mm 1 mps 756 mmHg 75%
    04:00 +28°C° 0.1 mm 1 mps 756 mmHg 73%
    05:00 +28°C° 0.1 mm 1 mps 756 mmHg 72%
    06:00 +28°C° 0.1 mm 2 mps 757 mmHg 70%
    07:00 +30°C° 0.1 mm 2 mps 757 mmHg 64%
    08:00 +32°C° 0.1 mm 2 mps 758 mmHg 58%
    09:00 +35°C° 0.1 mm 2 mps 758 mmHg 52%
    10:00 +35°C° 0.1 mm 2 mps 758 mmHg 51%
    11:00 +36°C° 0.1 mm 2 mps 757 mmHg 50%
    12:00 +37°C° 0.1 mm 2 mps 757 mmHg 50%
    13:00 +36°C° 0.3 mm 3 mps 756 mmHg 53%
    14:00 +35°C° 0.3 mm 3 mps 756 mmHg 57%
    15:00 +34°C° 0.3 mm 3 mps 755 mmHg 61%
    16:00 +33°C° 0.2 mm 3 mps 756 mmHg 69%
    17:00 +30°C° 0.2 mm 3 mps 756 mmHg 77%
    18:00 +29°C° 0.2 mm 2 mps 756 mmHg 85%
    19:00 +29°C° 0.1 mm 2 mps 757 mmHg 85%
    20:00 +29°C° 0.1 mm 2 mps 757 mmHg 85%
    21:00 +28°C° 0.1 mm 2 mps 758 mmHg 84%
    22:00 +28°C° 0.2 mm 2 mps 758 mmHg 83%
    23:00 +28°C° 0.2 mm 2 mps 757 mmHg 81%

    22 September, Saturday

    Time Temperature Precipitation Wind Pressure Humidity
    00:00 +28°C° 0.2 mm 2 mps 757 mmHg 79%
    01:00 +28°C° 0.4 mm 2 mps 757 mmHg 77%
    02:00 +28°C° 0.4 mm 2 mps 756 mmHg 76%
    03:00 +28°C° 0.4 mm 2 mps 756 mmHg 74%
    04:00 +28°C° 0.3 mm 2 mps 756 mmHg 73%
    05:00 +28°C° 0.3 mm 3 mps 757 mmHg 72%
    06:00 +28°C° 0.3 mm 3 mps 757 mmHg 71%
    07:00 +30°C° 0.3 mm 3 mps 757 mmHg 67%
    08:00 +33°C° 0.3 mm 3 mps 758 mmHg 63%
    09:00 +34°C° 0.3 mm 3 mps 758 mmHg 59%
    10:00 +35°C° 0.7 mm 3 mps 757 mmHg 58%
    11:00 +36°C° 0.7 mm 3 mps 757 mmHg 57%
    12:00 +36°C° 0.7 mm 4 mps 756 mmHg 56%
    13:00 +36°C° 0.4 mm 4 mps 755 mmHg 59%
    14:00 +35°C° 0.4 mm 4 mps 755 mmHg 63%
    15:00 +34°C° 0.4 mm 4 mps 754 mmHg 66%
    16:00 +33°C° 1.2 mm 3 mps 755 mmHg 73%
    17:00 +30°C° 1.2 mm 3 mps 755 mmHg 80%
    18:00 +29°C° 1.2 mm 2 mps 756 mmHg 87%
    19:00 +29°C° 0.7 mm 2 mps 756 mmHg 87%
    20:00 +29°C° 0.7 mm 2 mps 757 mmHg 87%
    21:00 +29°C° 0.7 mm 1 mps 757 mmHg 87%
    22:00 +28°C° 0.2 mm 2 mps 757 mmHg 86%
    23:00 +28°C° 0.2 mm 2 mps 757 mmHg 84%

    23 September, Sunday

    Time Temperature Precipitation Wind Pressure Humidity
    00:00 +28°C° 0.2 mm 2 mps 756 mmHg 83%
    01:00 +28°C° 0.5 mm 2 mps 756 mmHg 82%
    02:00 +28°C° 0.5 mm 2 mps 756 mmHg 81%
    03:00 +28°C° 0.5 mm 2 mps 755 mmHg 81%
    04:00 +28°C° 0.5 mm 2 mps 756 mmHg 79%
    05:00 +28°C° 0.5 mm 2 mps 756 mmHg 78%
    06:00 +28°C° 0.5 mm 2 mps 757 mmHg 76%
    07:00 +30°C° 0.4 mm 2 mps 757 mmHg 70%
    08:00 +32°C° 0.4 mm 2 mps 757 mmHg 63%
    09:00 +35°C° 0.4 mm 2 mps 758 mmHg 57%
    10:00 +35°C° 0.3 mm 2 mps 757 mmHg 56%
    11:00 +36°C° 0.3 mm 3 mps 757 mmHg 56%
    12:00 +36°C° 0.3 mm 3 mps 756 mmHg 55%
    13:00 +35°C° 1.2 mm 3 mps 756 mmHg 62%
    14:00 +34°C° 1.2 mm 3 mps 755 mmHg 69%
    15:00 +32°C° 1.2 mm 4 mps 755 mmHg 77%
    16:00 +30°C° 1.9 mm 3 mps 755 mmHg 81%
    17:00 +29°C° 1.9 mm 2 mps 756 mmHg 86%
    18:00 +28°C° 1.9 mm 2 mps 756 mmHg 91%
    19:00 +28°C° 0.9 mm 1 mps 757 mmHg 91%
    20:00 +28°C° 0.9 mm 1 mps 757 mmHg 91%
    21:00 +28°C° 0.9 mm 1 mps 758 mmHg 91%
    22:00 +28°C° 0.4 mm 1 mps 757 mmHg 90%
    23:00 +27°C° 0.4 mm 1 mps 757 mmHg 89%

    24 September, Monday

    Time Temperature Precipitation Wind Pressure Humidity
    00:00 +27°C° 0.4 mm 1 mps 757 mmHg 88%
    01:00 +27°C° 0.3 mm 1 mps 757 mmHg 88%
    02:00 +27°C° 0.3 mm 1 mps 756 mmHg 87%
    03:00 +27°C° 0.3 mm 1 mps 756 mmHg 87%
    04:00 +27°C° 0.7 mm 1 mps 757 mmHg 86%
    05:00 +27°C° 0.7 mm 1 mps 757 mmHg 85%
    06:00 +27°C° 0.7 mm 1 mps 757 mmHg 84%
    07:00 +29°C° 0.7 mm 1 mps 758 mmHg 76%
    08:00 +31°C° 0.7 mm 1 mps 758 mmHg 68%
    09:00 +33°C° 0.7 mm 1 mps 758 mmHg 60%
    10:00 +33°C° 0.4 mm 1 mps 758 mmHg 59%
    11:00 +35°C° 0.4 mm 2 mps 757 mmHg 58%
    12:00 +35°C° 0.4 mm 2 mps 757 mmHg 57%
    13:00 +34°C° 0.9 mm 3 mps 756 mmHg 63%
    14:00 +33°C° 0.9 mm 3 mps 756 mmHg 68%
    15:00 +31°C° 0.9 mm 3 mps 755 mmHg 74%
    16:00 +30°C° 1.5 mm 2 mps 756 mmHg 79%
    17:00 +29°C° 1.5 mm 2 mps 756 mmHg 84%
    18:00 +28°C° 1.5 mm 1 mps 757 mmHg 89%
    19:00 +28°C° 1.4 mm 1 mps 757 mmHg 89%
    20:00 +28°C° 1.4 mm 1 mps 758 mmHg 89%
    21:00 +28°C° 1.4 mm 1 mps 758 mmHg 89%
    22:00 +28°C° 0.6 mm 1 mps 758 mmHg 88%
    23:00 +27°C° 0.6 mm 1 mps 758 mmHg 87%
    Show more